SUMZM MYNN-MYEF

Flight info

Callsign SUMZM
Flight time 0h 33m
Altitude 13000
Route BOSAR
Aircraft PC12/L-SDFGRWY/S

Departure

Time 2026-05-06 19:27
Airport Lynden Pindling International Airport (MYNN)

Arrival

Time 2026-05-06 20:00
Airport Exuma International Airport (MYEF)
Time Latitude Longitude Altitude Speed Heading
2026-05-06 19:20 25.04549 -77.46290 28 ft 0 kts 318°
2026-05-06 19:23 25.04554 -77.46295 18 ft 5 kts 315°
2026-05-06 19:24 25.04540 -77.46342 18 ft 9 kts 225°
2026-05-06 19:24 25.04487 -77.46402 18 ft 13 kts 225°
2026-05-06 19:24 25.04468 -77.46496 18 ft 14 kts 290°
2026-05-06 19:24 25.04528 -77.46582 19 ft 14 kts 312°
2026-05-06 19:25 25.04520 -77.46663 19 ft 5 kts 225°
2026-05-06 19:25 25.04482 -77.46705 19 ft 11 kts 225°
2026-05-06 19:25 25.04418 -77.46720 19 ft 0 kts 135°
2026-05-06 19:25 25.04393 -77.46691 18 ft 26 kts 132°
2026-05-06 19:26 25.04120 -77.46386 17 ft 84 kts 132°
2026-05-06 19:26 25.03642 -77.45877 246 ft 97 kts 129°
2026-05-06 19:26 25.03176 -77.45272 439 ft 124 kts 128°
2026-05-06 19:26 25.02479 -77.44453 514 ft 158 kts 131°
2026-05-06 19:27 25.01733 -77.43543 889 ft 163 kts 130°
2026-05-06 19:27 25.01011 -77.42515 1256 ft 177 kts 122°
2026-05-06 19:27 25.00359 -77.41303 1625 ft 189 kts 120°
2026-05-06 19:27 24.99640 -77.40044 2015 ft 198 kts 123°
2026-05-06 19:28 24.98832 -77.38781 2375 ft 203 kts 125°
2026-05-06 19:28 24.97990 -77.37509 2723 ft 207 kts 126°
2026-05-06 19:28 24.97147 -77.36218 3090 ft 207 kts 126°
2026-05-06 19:28 24.96309 -77.34927 3455 ft 208 kts 126°
2026-05-06 19:29 24.95469 -77.33631 3808 ft 208 kts 126°
2026-05-06 19:29 24.94626 -77.32334 4176 ft 208 kts 126°
2026-05-06 19:29 24.93782 -77.31036 4540 ft 209 kts 127°
2026-05-06 19:29 24.92930 -77.29727 4912 ft 210 kts 127°
2026-05-06 19:30 24.92088 -77.28432 5263 ft 211 kts 127°
2026-05-06 19:30 24.91227 -77.27108 5627 ft 213 kts 127°
2026-05-06 19:30 24.90363 -77.25781 5993 ft 213 kts 127°
2026-05-06 19:30 24.89500 -77.24454 6359 ft 214 kts 127°
2026-05-06 19:31 24.88633 -77.23123 6712 ft 214 kts 127°
2026-05-06 19:31 24.87774 -77.21804 7056 ft 214 kts 127°
2026-05-06 19:31 24.86031 -77.19129 7770 ft 215 kts 127°
2026-05-06 19:32 24.85149 -77.17776 8131 ft 215 kts 127°
2026-05-06 19:32 24.84285 -77.16451 8495 ft 216 kts 126°
2026-05-06 19:32 24.83408 -77.15107 8856 ft 216 kts 126°
2026-05-06 19:32 24.82533 -77.13765 9226 ft 216 kts 126°
2026-05-06 19:33 24.81655 -77.12420 9606 ft 216 kts 126°
2026-05-06 19:33 24.80777 -77.11075 9982 ft 217 kts 126°
2026-05-06 19:33 24.79893 -77.09720 10331 ft 218 kts 126°
2026-05-06 19:33 24.79003 -77.08358 10674 ft 220 kts 126°
2026-05-06 19:34 24.78108 -77.06987 11025 ft 221 kts 125°
2026-05-06 19:34 24.77206 -77.05606 11378 ft 222 kts 125°
2026-05-06 19:34 24.76298 -77.04218 11736 ft 223 kts 125°
2026-05-06 19:34 24.75393 -77.02834 12097 ft 224 kts 124°
2026-05-06 19:35 24.74494 -77.01458 12455 ft 225 kts 124°
2026-05-06 19:35 24.73568 -77.00044 12703 ft 230 kts 124°
2026-05-06 19:35 24.72625 -76.98603 12956 ft 233 kts 124°
2026-05-06 19:35 24.71972 -76.97606 12997 ft 241 kts 124°
2026-05-06 19:36 24.70984 -76.96097 12998 ft 251 kts 124°
2026-05-06 19:36 24.69943 -76.94511 13000 ft 257 kts 124°
2026-05-06 19:36 24.68887 -76.92900 13003 ft 262 kts 124°
2026-05-06 19:36 24.67464 -76.90729 13004 ft 265 kts 124°
2026-05-06 19:37 24.66383 -76.89081 13005 ft 267 kts 124°
2026-05-06 19:37 24.65286 -76.87408 13005 ft 268 kts 124°
2026-05-06 19:37 24.64207 -76.85764 13002 ft 268 kts 124°
2026-05-06 19:37 24.63464 -76.84632 13003 ft 269 kts 124°
2026-05-06 19:38 24.62015 -76.82425 13004 ft 269 kts 124°
2026-05-06 19:38 24.60921 -76.80759 13005 ft 269 kts 124°
2026-05-06 19:38 24.59824 -76.79089 12998 ft 270 kts 124°
2026-05-06 19:38 24.58722 -76.77415 12998 ft 270 kts 124°
2026-05-06 19:39 24.57623 -76.75743 12999 ft 270 kts 124°
2026-05-06 19:39 24.56442 -76.74159 12989 ft 269 kts 137°
2026-05-06 19:39 24.54939 -76.72973 12994 ft 269 kts 148°
2026-05-06 19:39 24.53335 -76.71913 12993 ft 269 kts 149°
2026-05-06 19:40 24.51764 -76.70812 12993 ft 269 kts 145°
2026-05-06 19:40 24.50238 -76.69626 12993 ft 269 kts 144°
2026-05-06 19:40 24.48708 -76.68433 12995 ft 269 kts 144°
2026-05-06 19:40 24.47162 -76.67262 12995 ft 269 kts 145°
2026-05-06 19:41 24.45611 -76.66094 12992 ft 269 kts 145°
2026-05-06 19:41 24.44075 -76.64930 12994 ft 269 kts 145°
2026-05-06 19:41 24.42527 -76.63753 12991 ft 269 kts 145°
2026-05-06 19:41 24.40988 -76.62584 12991 ft 269 kts 145°
2026-05-06 19:42 24.39449 -76.61418 12994 ft 269 kts 145°
2026-05-06 19:42 24.37911 -76.60253 12992 ft 269 kts 145°
2026-05-06 19:42 24.36369 -76.59084 12991 ft 269 kts 145°
2026-05-06 19:42 24.34832 -76.57919 12992 ft 269 kts 145°
2026-05-06 19:43 24.33285 -76.56748 12991 ft 269 kts 145°
2026-05-06 19:43 24.31749 -76.55587 12990 ft 269 kts 145°
2026-05-06 19:43 24.30209 -76.54421 12991 ft 269 kts 145°
2026-05-06 19:43 24.28684 -76.53267 12988 ft 269 kts 145°
2026-05-06 19:44 24.27142 -76.52101 12993 ft 270 kts 145°
2026-05-06 19:44 24.25600 -76.50935 12996 ft 270 kts 145°
2026-05-06 19:44 24.24051 -76.49765 12990 ft 270 kts 145°
2026-05-06 19:44 24.22506 -76.48597 12992 ft 270 kts 145°
2026-05-06 19:45 24.20960 -76.47429 12994 ft 270 kts 146°
2026-05-06 19:45 24.19414 -76.46261 12989 ft 270 kts 146°
2026-05-06 19:45 24.17865 -76.45092 12992 ft 270 kts 146°
2026-05-06 19:45 24.16319 -76.43926 12999 ft 270 kts 146°
2026-05-06 19:46 24.14768 -76.42755 12992 ft 270 kts 146°
2026-05-06 19:46 24.13240 -76.41602 12994 ft 269 kts 146°
2026-05-06 19:46 24.11682 -76.40427 12996 ft 269 kts 146°
2026-05-06 19:46 24.10160 -76.39279 12990 ft 270 kts 146°
2026-05-06 19:47 24.08615 -76.38116 12668 ft 270 kts 146°
2026-05-06 19:47 24.07061 -76.36945 12345 ft 270 kts 146°
2026-05-06 19:47 24.05524 -76.35787 12029 ft 269 kts 146°
2026-05-06 19:47 24.03986 -76.34629 11713 ft 268 kts 146°
2026-05-06 19:48 24.02450 -76.33473 11403 ft 267 kts 147°
2026-05-06 19:48 24.00925 -76.32324 11092 ft 265 kts 147°
2026-05-06 19:48 23.99403 -76.31180 10787 ft 264 kts 147°
2026-05-06 19:48 23.97893 -76.30044 10487 ft 263 kts 147°
2026-05-06 19:49 23.96392 -76.28915 10186 ft 262 kts 147°
2026-05-06 19:49 23.94896 -76.27790 9878 ft 260 kts 147°
2026-05-06 19:49 23.93409 -76.26673 9551 ft 259 kts 148°
2026-05-06 19:49 23.91928 -76.25560 9225 ft 258 kts 147°
2026-05-06 19:50 23.90443 -76.24445 8898 ft 257 kts 147°
2026-05-06 19:50 23.88996 -76.23358 8581 ft 256 kts 147°
2026-05-06 19:50 23.87519 -76.22250 8263 ft 256 kts 147°
2026-05-06 19:50 23.86054 -76.21150 7944 ft 256 kts 147°
2026-05-06 19:51 23.84576 -76.20041 7635 ft 257 kts 147°
2026-05-06 19:51 23.83101 -76.18935 7321 ft 257 kts 147°
2026-05-06 19:51 23.81648 -76.17845 7023 ft 257 kts 147°
2026-05-06 19:51 23.80168 -76.16739 6721 ft 258 kts 147°
2026-05-06 19:52 23.78695 -76.15635 6416 ft 257 kts 147°
2026-05-06 19:52 23.77220 -76.14530 6091 ft 256 kts 147°
2026-05-06 19:52 23.75759 -76.13436 5774 ft 254 kts 147°
2026-05-06 19:52 23.74300 -76.12343 5457 ft 253 kts 147°
2026-05-06 19:53 23.73339 -76.11624 5247 ft 252 kts 147°
2026-05-06 19:53 23.71898 -76.10545 4935 ft 252 kts 146°
2026-05-06 19:53 23.70452 -76.09463 4618 ft 250 kts 146°
2026-05-06 19:53 23.68573 -76.08058 4192 ft 243 kts 146°
2026-05-06 19:54 23.67647 -76.07366 3977 ft 236 kts 146°
2026-05-06 19:54 23.66311 -76.06368 3662 ft 228 kts 146°
2026-05-06 19:54 23.65037 -76.05381 3348 ft 221 kts 140°
2026-05-06 19:54 23.64076 -76.04110 3043 ft 213 kts 119°
2026-05-06 19:55 23.63431 -76.02754 2720 ft 197 kts 117°
2026-05-06 19:55 23.62822 -76.01475 2401 ft 184 kts 118°
2026-05-06 19:55 23.62243 -76.00269 2076 ft 175 kts 117°
2026-05-06 19:55 23.61691 -75.99120 1757 ft 167 kts 117°
2026-05-06 19:56 23.61195 -75.98083 1695 ft 137 kts 117°
2026-05-06 19:56 23.60807 -75.97273 1691 ft 107 kts 117°
2026-05-06 19:56 23.60484 -75.96595 1690 ft 95 kts 117°
2026-05-06 19:56 23.60201 -75.96002 1658 ft 84 kts 116°
2026-05-06 19:57 23.59909 -75.95387 1498 ft 96 kts 116°
2026-05-06 19:57 23.59629 -75.94754 1203 ft 89 kts 116°
2026-05-06 19:57 23.59347 -75.94153 984 ft 92 kts 117°
2026-05-06 19:57 23.59044 -75.93553 818 ft 89 kts 123°
2026-05-06 19:58 23.58719 -75.92994 677 ft 88 kts 120°
2026-05-06 19:58 23.58465 -75.92399 575 ft 84 kts 110°
2026-05-06 19:58 23.58212 -75.91810 466 ft 86 kts 120°
2026-05-06 19:58 23.57917 -75.91243 436 ft 87 kts 118°
2026-05-06 19:59 23.57650 -75.90662 388 ft 86 kts 112°
2026-05-06 19:59 23.57377 -75.90083 314 ft 86 kts 118°
2026-05-06 19:59 23.57092 -75.89526 229 ft 83 kts 118°
2026-05-06 19:59 23.56820 -75.88969 110 ft 83 kts 116°
2026-05-06 20:00 23.56581 -75.88456 12 ft 67 kts 116°
2026-05-06 20:00 23.56424 -75.88127 12 ft 40 kts 117°
2026-05-06 20:00 23.56305 -75.87877 14 ft 37 kts 118°
2026-05-06 20:00 23.56201 -75.87662 15 ft 32 kts 120°
2026-05-06 20:01 23.56165 -75.87477 15 ft 25 kts 42°
2026-05-06 20:01 23.56249 -75.87423 14 ft 1 kts 27°
2026-05-06 20:01 23.56250 -75.87422 12 ft 0 kts 27°
2026-05-06 20:02 23.56258 -75.87417 14 ft 5 kts 27°
2026-05-06 20:03 23.56301 -75.87378 14 ft 10 kts 52°
2026-05-06 20:03 23.56316 -75.87306 14 ft 10 kts 75°
2026-05-06 20:03 23.56345 -75.87276 14 ft 3 kts 28°
2026-05-06 20:03 23.56346 -75.87276 14 ft 0 kts 28°